EW4831 Weather Reports


time (UTC)temp
C
wind
direction
speed
KPH
gust
KPH
rain 1hr
cm
rain 24hr
cm
rain mn
cm
humidity
%
barometer
mb
20260505153027 12 344 0.0 1.6 0.00 0.00 0.00 87 1016.1
20260505151525 11 344 0.0 1.6 0.00 0.00 0.00 88 1016.1
20260505124540 -17 0.0 0.0 0.00 0.00 0.00 1015.0
20260505123036 -17 0.0 0.0 0.00 0.00 0.00 1015.0
20260505121531 -17 0.0 0.0 0.00 0.00 0.00 1014.9
20260505120029 -17 0.0 0.0 0.00 0.00 0.00 1014.8
20260505114522 -17 0.0 0.0 0.00 0.00 0.00 1014.8
20260505113018 -17 0.0 0.0 0.00 0.00 0.00 1014.8
20260505111519 -17 0.0 0.0 0.00 0.00 0.00 1014.8
20260505101518 12 193 0.0 0.0 0.00 0.00 0.00 85 1014.2
20260505100009 12 193 0.0 0.0 0.00 0.00 0.00 85 1014.3
20260505094504 12 184 0.0 0.0 0.00 0.00 0.00 84 1014.3
20260505093105 12 174 0.0 0.0 0.00 0.00 0.00 84 1014.1
20260505091558 12 174 0.0 0.0 0.00 0.00 0.00 84 1014.0
20260505090100 12 168 0.0 0.0 0.00 0.00 0.00 83 1013.9
20260505084604 12 163 0.0 0.0 0.00 0.00 0.00 82 1013.8
20260505083052 13 96 0.0 1.6 0.00 0.00 0.00 83 1013.8
20260505081604 13 91 0.0 0.0 0.00 0.00 0.00 83 1013.6
20260505080059 13 91 0.0 0.0 0.00 0.00 0.00 83 1013.5
20260505074548 13 91 0.0 0.0 0.00 0.00 0.00 84 1013.4
20260505073045 13 91 0.0 0.0 0.00 0.00 0.00 84 1013.2
20260505071550 13 91 0.0 0.0 0.00 0.00 0.00 83 1013.1
20260505070040 13 91 0.0 1.6 0.00 0.00 0.00 84 1013.0
20260505064541 13 91 0.0 0.0 0.00 0.00 0.00 82 1012.8
20260505063047 14 94 0.0 1.6 0.00 0.00 0.00 81 1012.5
20260505061542 14 79 0.0 1.6 0.00 0.00 0.00 81 1012.3
20260505060039 15 18 0.0 0.0 0.00 0.00 0.00 82 1012.2
20260505054544 15 3 0.0 0.0 0.00 0.00 0.00 81 1012.1
20260505053043 15 3 0.0 0.0 0.00 0.00 0.00 79 1012.0
20260505051541 16 2 0.0 1.6 0.00 0.00 0.00 76 1011.8
20260505041535 17 253 0.0 1.6 0.00 0.00 0.00 76 1011.1
20260505040034 18 253 0.0 0.0 0.00 0.00 0.00 74 1011.0
20260505034534 18 236 0.0 1.6 0.00 0.00 0.00 72 1010.7
20260505033033 19 236 0.0 0.0 0.00 0.00 0.00 69 1010.4
20260505031538 20 236 0.0 1.6 0.00 0.00 0.00 67 1010.3
20260505030032 21 201 0.0 6.4 0.00 0.00 0.00 65 1010.1
20260505024531 21 171 0.0 4.8 0.00 0.00 0.00 66 1009.9
20260505023030 21 172 0.0 3.2 0.00 0.00 0.00 64 1009.9
20260505021534 21 176 0.0 4.8 0.00 0.00 0.00 64 1009.8
20260505020036 22 167 0.0 1.6 0.00 0.00 0.00 63 1009.8
20260505014528 22 275 0.0 3.2 0.00 0.00 0.00 62 1009.8
20260505013030 22 210 0.0 4.8 0.00 0.00 0.00 63 1009.9
20260505011533 22 242 0.0 9.7 0.00 0.00 0.00 63 1010.0
20260505010036 22 250 1.6 9.7 0.00 0.00 0.00 61 1010.1
20260505004525 22 194 1.6 11.3 0.00 0.00 0.00 62 1010.2
20260505003025 21 174 1.6 6.4 0.00 0.00 0.00 62 1010.1
20260505001523 22 202 1.6 8.0 0.00 0.00 0.00 61 1010.2
20260505000038 21 150 0.0 6.4 0.00 0.00 0.00 62 1010.3
20260504234521 22 220 0.0 8.0 0.00 0.00 0.00 61 1010.4
20260504233020 21 245 1.6 9.7 0.00 0.00 0.00 61 1010.4
20260504231520 21 205 1.6 6.4 0.00 0.00 0.00 61 1010.6
20260504230034 21 185 0.0 11.3 0.00 0.00 0.00 61 1010.7
20260504224522 21 231 0.0 6.4 0.00 0.00 0.00 61 1010.9
20260504223018 21 266 3.2 9.7 0.00 0.00 0.00 61 1011.0
20260504221536 20 98 0.0 6.4 0.00 0.00 0.00 62 1011.2
20260504220017 20 278 1.6 9.7 0.00 0.00 0.00 61 1011.5
20260504214516 20 143 0.0 6.4 0.00 0.00 0.00 62 1011.6
20260504213015 20 273 1.6 8.0 0.00 0.00 0.00 62 1011.8
20260504211514 20 246 0.0 6.4 0.00 0.00 0.00 62 1012.0
20260504210115 19 80 0.0 8.0 0.00 0.00 0.00 62 1012.2
20260504204514 18 104 0.0 4.8 0.00 0.00 0.00 65 1012.4
20260504203012 18 251 0.0 6.4 0.00 0.00 0.00 66 1012.6
20260504201512 18 87 1.6 8.0 0.00 0.00 0.00 67 1012.7
20260504200011 17 165 1.6 8.0 0.00 0.00 0.00 69 1012.9
20260504194510 16 147 1.6 6.4 0.00 0.00 0.00 72 1013.0
20260504193008 16 72 0.0 9.7 0.00 0.00 0.00 74 1013.0
20260504191511 15 257 1.6 4.8 0.00 0.00 0.00 75 1013.2
20260504190007 15 193 0.0 4.8 0.00 0.00 0.00 77 1013.2
20260504184506 15 84 1.6 8.0 0.00 0.00 0.00 78 1013.3
20260504183004 14 137 1.6 6.4 0.00 0.00 0.00 79 1013.4
20260504181507 14 167 0.0 6.4 0.00 0.00 0.00 80 1013.2
20260504180002 13 165 0.0 3.2 0.00 0.00 0.00 81 1013.2
20260504174501 13 241 0.0 4.8 0.00 0.00 0.00 82 1013.3
20260504173059 13 164 0.0 4.8 0.00 0.00 0.00 83 1013.3
20260504171600 13 255 0.0 4.8 0.00 0.00 0.00 83 1013.1